This is the latest recevied weather packets stored in our database for station/object OK1PHM-12. If no packets are shown the sender has not sent any weather packets the latest 10 day(s).
| Time | Temp. | Humidity | Pressure | Rain* | Wind** | Luminosity | Snow |
|---|---|---|---|---|---|---|---|
| 1777492134 | 5.56° C | 41% | 1030.6 hPa | - | - | - | - |
| 1777491233 | 6.67° C | 38% | 1030.4 hPa | - | - | - | - |
| 1777490332 | 6.67° C | 37% | 1030.2 hPa | - | - | - | - |
| 1777489431 | 7.22° C | 36% | 1030 hPa | - | - | - | - |
| 1777488530 | 7.78° C | 35% | 1029.8 hPa | - | - | - | - |
| 1777487630 | 7.78° C | 35% | 1029.5 hPa | - | - | - | - |
| 1777486729 | 8.33° C | 34% | 1029.4 hPa | - | - | - | - |
| 1777485828 | 8.33° C | 33% | 1029.1 hPa | - | - | - | - |
| 1777484927 | 8.89° C | 32% | 1028.9 hPa | - | - | - | - |
| 1777484026 | 9.44° C | 31% | 1028.7 hPa | - | - | - | - |
| 1777483126 | 10° C | 29% | 1028.3 hPa | - | - | - | - |
| 1777482225 | 10° C | 28% | 1028.3 hPa | - | - | - | - |
| 1777481324 | 10.56° C | 28% | 1028.1 hPa | - | - | - | - |
| 1777480423 | 10.56° C | 27% | 1028.2 hPa | - | - | - | - |
| 1777479522 | 10.56° C | 27% | 1028 hPa | - | - | - | - |
| 1777478621 | 11.11° C | 27% | 1027.7 hPa | - | - | - | - |
| 1777477721 | 11.11° C | 27% | 1027.6 hPa | - | - | - | - |
| 1777476820 | 11.67° C | 27% | 1027.5 hPa | - | - | - | - |
| 1777475919 | 11.67° C | 27% | 1027.5 hPa | - | - | - | - |
| 1777475018 | 11.67° C | 27% | 1027.5 hPa | - | - | - | - |
| 1777474117 | 11.67° C | 27% | 1027.3 hPa | - | - | - | - |
| 1777473216 | 11.67° C | 27% | 1027.4 hPa | - | - | - | - |
| 1777472316 | 12.22° C | 28% | 1027.4 hPa | - | - | - | - |
| 1777471415 | 12.22° C | 29% | 1027.3 hPa | - | - | - | - |
| 1777470514 | 12.22° C | 28% | 1027.3 hPa | - | - | - | - |
* Rain since midnight (hover to see other rain measurements)
** Current wind speed in m/s (hover to see current wind gust speed)